Preview of NWS' New Version of Forecast
This preview is not operational and should not be used for support decisions.

Regional Weather Roundup (RWR)

Issued by National Weather Service (NWS)

                            
000
ASUS43 KLSX 190457
RWRMO 

WEATHER SUMMARY FOR MISSOURI
NATIONAL WEATHER SERVICE SPRINGFIELD MO
1200 AM CDT SUN MAY 19 2019

NOTE: "FAIR" INDICATES FEW OR NO CLOUDS BELOW 12,000 FEET WITH NO
       SIGNIFICANT WEATHER AND/OR OBSTRUCTIONS TO VISIBILITY.
       CURRENT SKY AND/OR WEATHER CONDITIONS ARE NOT AVAILABLE FOR
       CHILLICOTHE AND FARMINGTON.

MOZ001>031-035>038-043-044-053-054-190600-
...NORTHERN AND WESTERN MISSOURI...
  
CITY           SKY/WX    TMP DP  RH WIND       PRES   REMARKS
KANSAS CTY INT DRIZZLE   61  60  97 CALM      29.61S                  
KANSAS C DTWN  MOCLDY    64  60  87 SW8       29.62R                  
LEE'S SUMMIT   CLOUDY    62  60  93 S10G21    29.62S                  
ST JOSEPH      CLOUDY    62  62 100 S5        29.60F                  
CHILLICOTHE      N/A     64  62  93 VRB3      29.62S                  
     
$$
MOZ066>068-077>081-088>096-101>105-190600-
...SOUTHWEST MISSOURI...
  
CITY           SKY/WX    TMP DP  RH WIND       PRES   REMARKS
SPRINGFIELD    CLOUDY    63  59  87 S10       29.66F                  
JOPLIN         CLOUDY    64  60  87 S9        29.66R                  
               
$$
MOZ032>034-039>042-045>050-055>058-069>072-190600-
...CENTRAL MISSOURI...  
  
CITY           SKY/WX    TMP DP  RH WIND       PRES   REMARKS
COLUMBIA       NOT AVBL                                               
JEFFERSON CITY CLOUDY    64  60  87 SE5       29.66S                  
ROLLA          CLOUDY    62  58  86 S13       29.68R                  
SEDALIA        CLOUDY    59  59 100 S8        29.65F                  
WARRENSBURG    CLOUDY    61  61 100 S6        29.63S                  
               
$$
MOZ051-052-059>065-190600-
...EAST CENTRAL MISSOURI...
  
CITY           SKY/WX    TMP DP  RH WIND       PRES   REMARKS
ST LOUIS INTL  LGT RAIN  71  59  65 S15G26    29.68S                  
                   
$$
MOZ072>076-082>087-097>100-106>115-190600-
...SOUTH CENTRAL AND SOUTHEAST MISSOURI...
  
CITY           SKY/WX    TMP DP  RH WIND       PRES   REMARKS
CAPE GIRARDEAU CLOUDY    69  64  84 S13G20    29.79S                  
POPLAR BLUFF   LGT RAIN  66  65  96 S7        29.78F                  
WEST PLAINS    CLOUDY    63  60  90 SE6       29.73F                  
                                       
$$